[[{"header":{"parameterUnit":"m.s-1","parameterCategory":2,"la1":30.2991,"la2":30.254,"lo1":-89.0895,"lo2":-89.0444,"dy":0.0017,"dx":0.0017,"nx":28,"ny":28,"refTime":"2025-06-11T21:00:00:Z","depth":"0","parameterNumber":2,"parameterNumberName":"U-component_of_CURRENTS"},"data":[0,0,0,0,0,0,0,0,0,0,0,0,0,0,0,0,0,0,0,0,0,0,0,0,0,0,0,0,0,0,0,0,0,0,0,0,0,0,0,0,0,0,0,0,0,0,0,0,0,0,0,0,0,0,0,0,0,0,-0.2666,-0.2667,0,-0.2713,-0.2714,-0.2714,-0.2705,-0.2704,-0.2704,-0.2703,-0.2705,-0.2706,-0.2707,0,0,0,0,0,0,0,0,0,0,0,0,0,-0.2575,-0.2577,-0.2666,-0.2667,-0.2668,-0.2713,-0.2714,-0.2714,-0.2705,-0.2704,-0.2703,-0.2703,-0.2705,-0.2706,-0.2707,0,0,0,0,0,0,0,0,0,0,0,0,0,-0.2615,-0.2577,-0.2666,-0.267,-0.2672,-0.2713,-0.2714,-0.2714,-0.2705,-0.2704,-0.2703,-0.2702,-0.2705,-0.2706,-0.2707,-0.2731,0,0,-0.271,-0.271,0,0,0,0,0,0,0,0,-0.2613,-0.2618,-0.2669,-0.267,-0.2672,-0.2705,-0.2683,-0.2719,-0.2705,-0.269,-0.2703,-0.2702,-0.2703,-0.2704,-0.2712,-0.2731,-0.2731,-0.271,-0.271,-0.2711,-0.2711,0,0,0,0,0,0,0,-0.261,-0.2616,-0.2682,-0.267,-0.2672,-0.2673,-0.2677,-0.269,-0.2698,-0.2691,-0.2691,-0.2701,-0.2703,-0.2711,-0.2712,-0.2731,-0.271,-0.2711,-0.2711,-0.2712,-0.2745,-0.2745,0,0,0,0,0,0,-0.2611,-0.2614,-0.2681,-0.2684,-0.2642,-0.2676,-0.268,-0.2693,-0.2699,-0.27,-0.2702,-0.27,-0.271,-0.2711,-0.2712,-0.2727,-0.2711,-0.2712,-0.2712,-0.2744,-0.2745,-0.2745,0,0,0,0,0,0,-0.2609,-0.2616,-0.2679,-0.2652,-0.266,-0.2678,-0.2692,-0.2694,-0.2701,-0.2708,-0.2708,-0.2706,-0.2709,-0.2711,-0.2722,-0.2728,-0.2712,-0.2713,-0.2744,-0.2745,-0.2745,-0.2767,0,0,0,0,0,0,-0.2606,-0.2615,-0.2619,-0.2652,-0.2662,-0.2705,-0.2694,-0.2696,-0.271,-0.2708,-0.2712,-0.2711,-0.2709,-0.2721,-0.2723,-0.2729,-0.2714,-0.2744,-0.2744,-0.2745,-0.2766,-0.2768,-0.277,0,0,0,0,0,-0.2603,-0.2615,-0.2619,-0.2627,-0.2668,-0.2706,-0.2711,-0.2719,-0.2711,-0.2719,-0.2718,-0.2711,-0.2725,-0.2722,-0.2725,-0.2731,-0.2743,-0.2744,-0.2745,-0.2765,-0.2767,-0.277,0,0,0,0,0,0,-0.2574,-0.2617,-0.2621,-0.2644,-0.2673,-0.2705,-0.2713,-0.2722,-0.273,-0.2723,-0.2722,-0.2722,-0.2733,-0.2731,-0.2727,-0.2741,-0.2731,-0.2732,-0.2745,-0.2748,-0.275,-0.275,-0.2714,0,0,0,0,0,-0.2572,-0.259,-0.2632,-0.2647,-0.2662,-0.2687,-0.2701,-0.2713,-0.2729,-0.2731,-0.2734,-0.2734,-0.274,-0.2742,-0.2748,-0.2761,-0.2746,-0.2764,-0.2766,-0.2768,-0.277,-0.2764,-0.2766,-0.2747,-0.2747,-0.2747,0,0,-0.2563,-0.2589,-0.2597,-0.2641,-0.266,-0.2693,-0.2692,-0.2719,-0.274,-0.273,-0.2748,-0.2746,-0.2746,-0.2758,-0.2762,-0.2755,-0.2761,-0.2769,-0.277,-0.2771,-0.2765,-0.2767,-0.2768,-0.2748,-0.2748,-0.2748,0,0,-0.2564,-0.2579,-0.26,-0.263,-0.267,-0.2691,-0.2701,-0.2738,-0.2744,-0.2768,-0.2761,-0.2762,-0.2777,-0.2775,-0.2776,-0.2794,-0.2774,-0.2794,-0.2805,-0.28,-0.2801,-0.2803,-0.2766,-0.2763,-0.2793,-0.2793,-0.2793,0,-0.2551,-0.2585,-0.261,-0.2644,-0.2669,-0.2692,-0.2725,-0.2744,-0.2776,-0.2784,-0.2774,-0.2789,-0.2784,-0.2798,-0.2798,-0.2799,-0.2784,-0.2796,-0.2803,-0.2804,-0.2805,-0.2767,-0.2764,-0.2794,-0.2794,-0.2794,-0.2794,0,-0.2574,-0.2604,-0.2619,-0.2669,-0.2698,-0.2729,-0.2768,-0.2787,-0.2794,-0.281,-0.2824,-0.2818,-0.2823,-0.2821,-0.2814,-0.282,-0.2802,-0.2808,-0.2796,-0.2808,-0.2767,-0.2763,-0.2796,-0.2796,-0.2795,-0.2795,0,0,-0.2535,-0.262,-0.2622,-0.2651,-0.2715,-0.274,-0.278,-0.282,-0.2835,-0.2852,-0.2863,-0.2868,-0.2858,-0.2858,-0.2849,-0.2841,-0.2819,-0.2826,-0.2825,-0.2788,-0.2785,-0.2676,-0.2661,-0.2831,-0.2831,-0.2831,-0.2747,0,-0.2543,-0.2607,-0.265,-0.2701,-0.2735,-0.2778,-0.2812,-0.2848,-0.2865,-0.288,-0.2877,-0.2883,-0.2875,-0.2868,-0.2863,-0.2836,-0.2815,-0.284,-0.278,-0.2778,-0.2679,-0.2656,-0.2541,-0.2448,-0.2743,-0.2743,-0.2742,0,-0.2546,-0.259,-0.2647,-0.272,-0.2737,-0.2769,-0.2818,-0.2853,-0.2887,-0.2898,-0.291,-0.2907,-0.29,-0.2886,-0.2849,-0.2867,-0.2825,-0.2799,-0.2796,-0.2685,-0.2662,-0.2488,-0.2431,-0.2422,-0.2737,-0.2738,-0.2738,0,-0.2495,-0.2581,-0.2622,-0.265,-0.2738,-0.2761,-0.2799,-0.2849,-0.2872,-0.2901,-0.291,-0.2915,-0.2901,-0.2875,-0.2812,-0.2836,-0.2751,-0.2779,-0.2639,-0.263,-0.2514,-0.2494,-0.2439,-0.2744,-0.2744,-0.2744,-0.2745,0,-0.2483,-0.2508,-0.26,-0.2621,-0.2655,-0.2729,-0.2762,-0.2801,-0.2851,-0.2861,-0.2905,-0.2894,-0.2899,-0.2853,-0.2807,-0.2689,-0.2743,-0.2624,-0.26,-0.2514,-0.2496,-0.2469,-0.2506,-0.2741,-0.2742,-0.2742,-0.2743,0,-0.2409,-0.2479,-0.2522,-0.2611,-0.2633,-0.2651,-0.2731,-0.2748,-0.2816,-0.2827,-0.2835,-0.287,-0.2805,-0.2775,-0.2709,-0.2659,-0.252,-0.2515,-0.2393,-0.2354,-0.2225,-0.2267,-0.2189,-0.2129,-0.2361,-0.2357,-0.2355,0,-0.2376,-0.2392,-0.2482,-0.2493,-0.2527,-0.2575,-0.2599,-0.27,-0.2723,-0.279,-0.2775,-0.2752,-0.2673,-0.2538,-0.2446,-0.2325,-0.2368,-0.2178,-0.2206,-0.218,-0.2211,-0.2261,-0.2221,-0.2057,-0.2052,-0.2048,-0.2045,0,-0.2283,-0.2316,-0.2344,-0.2384,-0.2412,-0.2451,-0.25,-0.2524,-0.2625,-0.2628,-0.2597,-0.254,-0.2432,-0.2253,-0.2128,-0.2057,-0.213,-0.209,-0.2107,-0.1992,-0.2001,-0.1943,-0.2143,-0.2009,-0.2012,-0.2015,-0.2017,-0.2018,-0.218,-0.2178,-0.2217,-0.2238,-0.2272,-0.2291,-0.2232,-0.2316,-0.2315,-0.226,-0.236,-0.2203,-0.2137,-0.1928,-0.1854,-0.1735,-0.1834,-0.1717,-0.1774,-0.183,-0.1758,-0.1854,-0.1671,-0.1672,-0.1674,-0.1675,-0.1676,0,-0.2055,-0.2057,-0.2064,-0.2088,-0.2041,-0.2113,-0.2114,-0.2,-0.1916,-0.1937,-0.1871,-0.1798,-0.1661,-0.162,-0.1533,-0.146,-0.1456,-0.1455,-0.1524,-0.1502,-0.1605,-0.1576,-0.131,-0.131,-0.131,-0.131,-0.131,-0.131,-0.1983,-0.1948,-0.1959,-0.1838,-0.1817,-0.164,-0.1564,-0.1471,-0.14,-0.1254,-0.1206,-0.1203,-0.133,-0.1521,-0.1451,-0.138,-0.1388,-0.133,-0.1388,-0.1501,-0.1531,-0.1561,-0.1542,-0.1272,-0.1273,-0.1221,-0.1221,-0.1221]},{"header":{"parameterUnit":"m.s-1","parameterCategory":2,"la1":30.2991,"la2":30.254,"lo1":-89.0895,"lo2":-89.0444,"dy":0.0017,"dx":0.0017,"nx":28,"ny":28,"refTime":"2025-06-11T21:00:00:Z","depth":"0","parameterNumber":3,"parameterNumberName":"V-component_of_CURRENTS"},"data":[0,0,0,0,0,0,0,0,0,0,0,0,0,0,0,0,0,0,0,0,0,0,0,0,0,0,0,0,0,0,0,0,0,0,0,0,0,0,0,0,0,0,0,0,0,0,0,0,0,0,0,0,0,0,0,0,0,0,-0.0138,-0.0137,0,-0.0036,-0.0034,-0.0033,0.0042,0.0043,0.0043,0.0044,0.0187,0.0191,0.0194,0,0,0,0,0,0,0,0,0,0,0,0,0,-0.0199,-0.0199,-0.0138,-0.0137,-0.0136,-0.0036,-0.0034,-0.0033,0.0042,0.0043,0.0043,0.0044,0.0186,0.019,0.0194,0,0,0,0,0,0,0,0,0,0,0,0,0,-0.0142,-0.0199,-0.0138,-0.0087,-0.0082,-0.0036,-0.0034,-0.0032,0.0042,0.0043,0.0043,0.0044,0.0185,0.019,0.0195,0.0209,0,0,0.021,0.0212,0,0,0,0,0,0,0,0,-0.0145,-0.0139,-0.0096,-0.0091,-0.0084,-0.001,-0.0003,0.005,0.0042,-0.0004,0.0044,0.0045,0.0124,0.0134,0.0153,0.0216,0.0222,0.021,0.0214,0.0216,0.0217,0,0,0,0,0,0,0,-0.0149,-0.0143,-0.0096,-0.0095,-0.0088,-0.0046,-0.0037,0.0008,0.0056,0.0,0.0006,0.0015,0.0128,0.0147,0.0157,0.0224,0.021,0.0215,0.0218,0.022,0.0331,0.0331,0,0,0,0,0,0,-0.0169,-0.0147,-0.01,-0.0093,-0.0115,-0.0046,-0.0036,-0.0034,0.0055,0.0068,0.0014,0.0018,0.0139,0.0151,0.0162,0.0191,0.0216,0.022,0.0223,0.0331,0.0331,0.0331,0,0,0,0,0,0,-0.0171,-0.0166,-0.0104,-0.0118,-0.0107,-0.0046,-0.0044,-0.0032,-0.0011,0.0065,0.0079,0.0023,0.014,0.0155,0.0199,0.0197,0.0223,0.0227,0.0331,0.0331,0.0331,0.0245,0,0,0,0,0,0,-0.0173,-0.0167,-0.0174,-0.012,-0.0107,-0.0087,-0.0044,-0.0031,-0.0007,-0.0001,0.0077,0.0091,0.0142,0.0191,0.0204,0.0204,0.0231,0.0331,0.0331,0.0331,0.0248,0.0242,0.0237,0,0,0,0,0,-0.0176,-0.0192,-0.0175,-0.0169,-0.0118,-0.0088,-0.0078,-0.003,-0.0008,-0.0007,0.0049,0.0089,0.02,0.0195,0.021,0.0212,0.0331,0.0331,0.0331,0.025,0.0243,0.0237,0,0,0,0,0,0,-0.0222,-0.0184,-0.0165,-0.0168,-0.0135,-0.0076,-0.0071,-0.0038,0.0007,0.0013,0.0086,0.0104,0.0141,0.0187,0.018,0.0244,0.0273,0.0276,0.0207,0.02,0.0195,0.0179,0.0235,0,0,0,0,0,-0.0237,-0.0239,-0.0193,-0.0196,-0.0184,-0.0129,-0.0111,-0.008,-0.0033,-0.0012,0.0042,0.0102,0.0152,0.0183,0.0231,0.0265,0.0322,0.0278,0.0272,0.0267,0.0265,0.0345,0.0346,0.033,0.033,0.033,0,0,-0.0255,-0.0235,-0.0236,-0.0206,-0.0176,-0.0168,-0.0116,-0.0097,-0.0085,-0.0004,0.0026,0.0081,0.0155,0.0193,0.0215,0.0233,0.0301,0.0267,0.0262,0.0263,0.0345,0.0346,0.0348,0.033,0.033,0.033,0,0,-0.0298,-0.0277,-0.0294,-0.0273,-0.0238,-0.0202,-0.0202,-0.0148,-0.0118,-0.0085,-0.0022,0.003,0.0103,0.016,0.0197,0.0191,0.0265,0.0206,0.0173,0.0249,0.0251,0.0254,0.0325,0.0334,0.0209,0.0209,0.0209,0,-0.0323,-0.0336,-0.0294,-0.0303,-0.029,-0.0224,-0.0235,-0.0197,-0.0135,-0.0108,-0.0088,0.0032,0.0089,0.0152,0.0149,0.0179,0.0233,0.0188,0.0241,0.0245,0.0249,0.0322,0.0333,0.0205,0.0205,0.0206,0.0206,0,-0.0376,-0.0384,-0.0392,-0.0381,-0.036,-0.036,-0.0303,-0.0277,-0.0233,-0.0183,-0.0118,-0.0036,0.0037,0.0064,0.0104,0.0161,0.0193,0.0219,0.0254,0.0245,0.0323,0.0336,0.0199,0.02,0.0201,0.0202,0,0,-0.0436,-0.0433,-0.0435,-0.0443,-0.0403,-0.0393,-0.0369,-0.0323,-0.0297,-0.023,-0.0188,-0.0101,-0.0048,-0.0001,0.0064,0.0132,0.0202,0.0179,0.0185,0.0241,0.0372,0.0403,0.0422,0.0238,0.024,0.0241,0.0414,0,-0.049,-0.0536,-0.0506,-0.0533,-0.0549,-0.0481,-0.0462,-0.0407,-0.0341,-0.0283,-0.0183,-0.0121,-0.0073,-0.0036,0.0036,0.0161,0.0234,0.0153,0.038,0.0386,0.0408,0.0437,0.0483,0.0641,0.0427,0.043,0.0431,0,-0.055,-0.0572,-0.0619,-0.0611,-0.0608,-0.0605,-0.0551,-0.0523,-0.0419,-0.0366,-0.028,-0.0195,-0.0089,-0.0049,0.0158,0.0104,0.0224,0.0325,0.0334,0.0403,0.0443,0.0618,0.0675,0.0836,0.0453,0.0451,0.045,0,-0.0623,-0.0645,-0.0687,-0.0687,-0.0666,-0.0663,-0.0638,-0.0552,-0.0517,-0.0413,-0.0367,-0.0232,-0.0147,0.0004,0.0201,0.0184,0.044,0.0447,0.0594,0.0598,0.0702,0.0712,0.0936,0.0599,0.0598,0.0598,0.0597,0,-0.0697,-0.0726,-0.0728,-0.0752,-0.0783,-0.0735,-0.0731,-0.068,-0.0592,-0.0533,-0.042,-0.0332,-0.0127,0.0043,0.02,0.0443,0.0445,0.0599,0.065,0.0673,0.0677,0.0873,0.0915,0.0604,0.0603,0.0602,0.06,0,-0.0772,-0.0775,-0.0823,-0.0824,-0.0824,-0.0845,-0.0806,-0.0788,-0.0698,-0.0615,-0.0584,-0.0387,-0.016,0.0052,0.0332,0.0459,0.0779,0.0761,0.0768,0.0815,0.1065,0.1098,0.1352,0.1447,0.094,0.0942,0.0944,0,-0.0817,-0.0853,-0.0888,-0.0915,-0.092,-0.0934,-0.0933,-0.0857,-0.0817,-0.0631,-0.0588,-0.0356,-0.0159,0.024,0.0501,0.0789,0.0904,0.0992,0.0963,0.11,0.1176,0.1193,0.1254,0.1077,0.1079,0.1081,0.1083,0,-0.0893,-0.0902,-0.0937,-0.0998,-0.102,-0.1031,-0.1014,-0.0988,-0.086,-0.0744,-0.0532,-0.0357,0.0015,0.0375,0.0721,0.089,0.1099,0.1042,0.1205,0.1317,0.1334,0.1441,0.0932,0.1102,0.11,0.1098,0.1097,0.1097,-0.0931,-0.0973,-0.1011,-0.1052,-0.1084,-0.1073,-0.101,-0.0949,-0.0827,-0.0531,-0.0458,-0.0074,0.0287,0.0786,0.0962,0.1337,0.1277,0.146,0.1496,0.1506,0.1578,0.1093,0.1295,0.1294,0.1293,0.1293,0.1292,0,-0.0943,-0.0987,-0.1052,-0.1065,-0.1056,-0.1067,-0.1003,-0.0871,-0.0649,-0.0385,-0.0118,0.0395,0.0808,0.1157,0.1594,0.1792,0.1826,0.1891,0.1949,0.1995,0.1611,0.1597,0.1848,0.1847,0.1847,0.1847,0.1847,0.1847,-0.0948,-0.0992,-0.1016,-0.0996,-0.0985,-0.0874,-0.0785,-0.0599,-0.038,0.0094,0.0501,0.0759,0.1138,0.1751,0.2173,0.2213,0.2391,0.2363,0.245,0.2198,0.2161,0.2125,0.2126,0.2484,0.2485,0.2841,0.2845,0.2847]}],[{"header":{"parameterUnit":"m.s-1","parameterCategory":2,"la1":30.2991,"la2":30.254,"lo1":-89.0895,"lo2":-89.0444,"dy":0.0017,"dx":0.0017,"nx":28,"ny":28,"refTime":"2025-06-11T21:00:00:Z","depth":"2","parameterNumber":2,"parameterNumberName":"U-component_of_CURRENTS"},"data":[0,0,0,0,0,0,0,0,0,0,0,0,0,0,0,0,0,0,0,0,0,0,0,0,0,0,0,0,0,0,0,0,0,0,0,0,0,0,0,0,0,0,0,0,0,0,0,0,0,0,0,0,0,0,0,0,0,0,-0.2529,-0.2529,0,-0.2577,-0.2577,-0.2577,-0.2574,-0.2574,-0.2573,-0.2573,-0.2583,-0.2584,-0.2585,0,0,0,0,0,0,0,0,0,0,0,0,0,-0.2437,-0.2438,-0.2528,-0.2529,-0.253,-0.2577,-0.2577,-0.2577,-0.2574,-0.2574,-0.2573,-0.2572,-0.2583,-0.2584,-0.2585,0,0,0,0,0,0,0,0,0,0,0,0,0,-0.2477,-0.2439,-0.2528,-0.2536,-0.2537,-0.2576,-0.2577,-0.2577,-0.2574,-0.2574,-0.2573,-0.2572,-0.2583,-0.2584,-0.2585,-0.2606,0,0,-0.2588,-0.2589,0,0,0,0,0,0,0,0,-0.2475,-0.248,-0.2534,-0.2536,-0.2537,-0.2571,-0.2549,-0.2586,-0.2574,-0.2558,-0.2573,-0.2572,-0.2578,-0.258,-0.2587,-0.2607,-0.2607,-0.2589,-0.2589,-0.259,-0.259,0,0,0,0,0,0,0,-0.2472,-0.2478,-0.2545,-0.2535,-0.2537,-0.2538,-0.2543,-0.2556,-0.2568,-0.2559,-0.256,-0.2569,-0.2578,-0.2586,-0.2587,-0.2607,-0.2589,-0.2589,-0.259,-0.2591,-0.2631,-0.2631,0,0,0,0,0,0,-0.2472,-0.2476,-0.2543,-0.2547,-0.2507,-0.2541,-0.2546,-0.2559,-0.2569,-0.2571,-0.257,-0.2569,-0.2584,-0.2586,-0.2587,-0.261,-0.259,-0.2591,-0.2591,-0.263,-0.2631,-0.2631,0,0,0,0,0,0,-0.247,-0.2478,-0.2542,-0.2514,-0.2522,-0.2543,-0.2558,-0.256,-0.257,-0.2578,-0.2579,-0.2577,-0.2584,-0.2586,-0.2601,-0.261,-0.2591,-0.2592,-0.263,-0.2631,-0.2631,-0.2656,0,0,0,0,0,0,-0.2468,-0.2477,-0.2483,-0.2514,-0.2524,-0.2569,-0.2559,-0.2562,-0.2578,-0.2577,-0.2585,-0.2585,-0.2584,-0.26,-0.2602,-0.2611,-0.2593,-0.2629,-0.263,-0.2631,-0.2655,-0.2657,-0.266,0,0,0,0,0,-0.2464,-0.2478,-0.2483,-0.2491,-0.2533,-0.257,-0.2575,-0.2585,-0.2579,-0.2589,-0.2592,-0.2585,-0.2606,-0.2601,-0.2604,-0.2613,-0.2629,-0.263,-0.2631,-0.2653,-0.2657,-0.266,0,0,0,0,0,0,-0.244,-0.2481,-0.2486,-0.2511,-0.254,-0.257,-0.2579,-0.2589,-0.2601,-0.2597,-0.2597,-0.2598,-0.2614,-0.2612,-0.2606,-0.2626,-0.2614,-0.2616,-0.263,-0.2634,-0.2636,-0.2637,-0.2594,0,0,0,0,0,-0.2439,-0.2458,-0.2498,-0.2515,-0.2531,-0.2555,-0.257,-0.2582,-0.2599,-0.2604,-0.261,-0.2613,-0.2621,-0.2625,-0.2633,-0.2649,-0.2633,-0.2654,-0.2657,-0.2659,-0.2661,-0.2655,-0.2658,-0.2634,-0.2634,-0.2634,0,0,-0.2432,-0.2458,-0.2467,-0.2511,-0.2529,-0.2562,-0.2561,-0.2589,-0.2612,-0.2603,-0.2626,-0.2626,-0.2628,-0.2643,-0.2649,-0.2642,-0.2653,-0.266,-0.2662,-0.2663,-0.2657,-0.2659,-0.2661,-0.2635,-0.2635,-0.2635,0,0,-0.2436,-0.2454,-0.2474,-0.2504,-0.2543,-0.2564,-0.2575,-0.2611,-0.262,-0.2648,-0.2642,-0.2647,-0.2665,-0.2665,-0.2667,-0.2689,-0.2669,-0.269,-0.2704,-0.2699,-0.27,-0.2702,-0.2668,-0.2666,-0.269,-0.269,-0.269,0,-0.2426,-0.2461,-0.2485,-0.2518,-0.2543,-0.2567,-0.26,-0.2619,-0.2654,-0.2664,-0.2656,-0.2678,-0.2674,-0.2692,-0.2694,-0.2695,-0.268,-0.2693,-0.2702,-0.2703,-0.2704,-0.2669,-0.2667,-0.2691,-0.2691,-0.2691,-0.2691,0,-0.245,-0.2481,-0.2496,-0.2546,-0.2575,-0.2606,-0.2644,-0.2666,-0.2677,-0.2694,-0.2714,-0.2711,-0.272,-0.2719,-0.2712,-0.2722,-0.2704,-0.2707,-0.2694,-0.2708,-0.267,-0.2667,-0.2693,-0.2692,-0.2692,-0.2692,0,0,-0.2416,-0.2499,-0.2502,-0.253,-0.2593,-0.2618,-0.266,-0.2701,-0.2719,-0.2741,-0.2756,-0.2766,-0.2759,-0.276,-0.2752,-0.2745,-0.2727,-0.2729,-0.2728,-0.2694,-0.2695,-0.259,-0.2576,-0.2736,-0.2736,-0.2736,-0.2659,0,-0.2425,-0.2487,-0.253,-0.2581,-0.2616,-0.2658,-0.2693,-0.2731,-0.2752,-0.2771,-0.2772,-0.2783,-0.2777,-0.2773,-0.2769,-0.2742,-0.2725,-0.2747,-0.2688,-0.2686,-0.2589,-0.2571,-0.2397,-0.2306,-0.2656,-0.2656,-0.2656,0,-0.243,-0.2473,-0.253,-0.2602,-0.2619,-0.2653,-0.2704,-0.2741,-0.2778,-0.2792,-0.2809,-0.281,-0.2806,-0.2793,-0.276,-0.2776,-0.2736,-0.2711,-0.2708,-0.26,-0.2575,-0.2352,-0.2288,-0.2651,-0.2651,-0.2651,-0.2652,0,-0.2383,-0.2467,-0.2509,-0.2537,-0.2623,-0.2648,-0.2687,-0.2739,-0.2764,-0.2799,-0.281,-0.282,-0.2808,-0.2786,-0.2728,-0.2748,-0.2672,-0.2692,-0.2559,-0.2551,-0.2385,-0.2361,-0.2662,-0.2662,-0.2662,-0.2662,-0.2662,0,-0.2372,-0.2399,-0.249,-0.2511,-0.2548,-0.262,-0.2656,-0.2697,-0.2748,-0.276,-0.2808,-0.28,-0.2807,-0.2767,-0.2725,-0.2613,-0.2666,-0.2548,-0.2523,-0.2385,-0.2363,-0.2657,-0.2657,-0.2659,-0.266,-0.266,-0.2661,0,-0.2304,-0.2372,-0.2417,-0.2505,-0.2528,-0.2548,-0.2629,-0.2647,-0.2716,-0.273,-0.2739,-0.2776,-0.2716,-0.2693,-0.2632,-0.2584,-0.2505,-0.2451,-0.2271,-0.2226,-0.2391,-0.2394,-0.2307,-0.2302,-0.2298,-0.2295,-0.2293,0,-0.2274,-0.2292,-0.2382,-0.2394,-0.2429,-0.2479,-0.2503,-0.2603,-0.2624,-0.2693,-0.2678,-0.2661,-0.2588,-0.2465,-0.2372,-0.2259,-0.2369,-0.2064,-0.2074,-0.2369,-0.2355,-0.2364,-0.2371,-0.1858,-0.1852,-0.1847,-0.1843,0,-0.2189,-0.2224,-0.2252,-0.229,-0.2319,-0.236,-0.2408,-0.2427,-0.2525,-0.2538,-0.2511,-0.2462,-0.2349,-0.2146,-0.2029,-0.1955,-0.2073,-0.196,-0.2303,-0.1979,-0.1941,-0.1929,-0.1952,-0.1799,-0.1804,-0.1807,-0.1809,-0.1811,-0.2097,-0.2093,-0.2129,-0.2139,-0.2187,-0.2203,-0.218,-0.2241,-0.2248,-0.2234,-0.2281,-0.2135,-0.2087,-0.1786,-0.1676,-0.1604,-0.1752,-0.1706,-0.1724,-0.1746,-0.1712,-0.167,-0.147,-0.1472,-0.1474,-0.1476,-0.1477,0,-0.1954,-0.1958,-0.1966,-0.1968,-0.1942,-0.206,-0.2072,-0.2005,-0.1949,-0.1985,-0.1925,-0.1649,-0.1502,-0.1456,-0.1264,-0.1231,-0.1243,-0.12,-0.123,-0.1272,-0.131,-0.1258,-0.0893,-0.0891,-0.0889,-0.0888,0,0,-0.1876,-0.1815,-0.1808,-0.1699,-0.1733,-0.1667,-0.166,-0.1596,-0.1561,-0.1464,-0.1395,-0.1464,-0.1422,-0.1166,-0.1106,-0.0973,-0.1122,-0.0924,-0.1392,-0.1471,-0.1508,-0.1595,-0.156,0,0,0,0,0]},{"header":{"parameterUnit":"m.s-1","parameterCategory":2,"la1":30.2991,"la2":30.254,"lo1":-89.0895,"lo2":-89.0444,"dy":0.0017,"dx":0.0017,"nx":28,"ny":28,"refTime":"2025-06-11T21:00:00:Z","depth":"2","parameterNumber":3,"parameterNumberName":"V-component_of_CURRENTS"},"data":[0,0,0,0,0,0,0,0,0,0,0,0,0,0,0,0,0,0,0,0,0,0,0,0,0,0,0,0,0,0,0,0,0,0,0,0,0,0,0,0,0,0,0,0,0,0,0,0,0,0,0,0,0,0,0,0,0,0,-0.0241,-0.024,0,-0.0144,-0.0143,-0.0141,-0.007,-0.0069,-0.0069,-0.0068,0.0067,0.007,0.0073,0,0,0,0,0,0,0,0,0,0,0,0,0,-0.0306,-0.0305,-0.0241,-0.024,-0.0239,-0.0144,-0.0143,-0.0141,-0.007,-0.0069,-0.0069,-0.0068,0.0066,0.007,0.0074,0,0,0,0,0,0,0,0,0,0,0,0,0,-0.0249,-0.0305,-0.0241,-0.0193,-0.0188,-0.0144,-0.0143,-0.0141,-0.007,-0.0069,-0.0069,-0.0068,0.0065,0.007,0.0074,0.0087,0,0,0.0089,0.0091,0,0,0,0,0,0,0,0,-0.0253,-0.0247,-0.0201,-0.0196,-0.019,-0.0119,-0.0116,-0.0063,-0.007,-0.0114,-0.0068,-0.0067,0.0007,0.0017,0.0034,0.0094,0.0099,0.0089,0.0092,0.0094,0.0095,0,0,0,0,0,0,0,-0.0257,-0.025,-0.0202,-0.02,-0.0193,-0.0155,-0.0147,-0.0105,-0.0057,-0.011,-0.0105,-0.0096,0.0011,0.0029,0.0038,0.0101,0.0089,0.0093,0.0096,0.0098,0.0202,0.0201,0,0,0,0,0,0,-0.0275,-0.0255,-0.0205,-0.0199,-0.0221,-0.0155,-0.0146,-0.0142,-0.0058,-0.0046,-0.0096,-0.0093,0.0021,0.0032,0.0043,0.0074,0.0094,0.0098,0.0101,0.0202,0.0202,0.0201,0,0,0,0,0,0,-0.0277,-0.0272,-0.0209,-0.0225,-0.0214,-0.0156,-0.0151,-0.014,-0.012,-0.0049,-0.0035,-0.0087,0.0022,0.0036,0.0078,0.008,0.01,0.0104,0.0202,0.0202,0.0201,0.013,0,0,0,0,0,0,-0.0279,-0.0273,-0.0278,-0.0226,-0.0214,-0.0192,-0.0152,-0.0139,-0.0116,-0.011,-0.0037,-0.0023,0.0024,0.0071,0.0083,0.0087,0.0108,0.0202,0.0202,0.0202,0.0133,0.0128,0.0124,0,0,0,0,0,-0.0282,-0.0295,-0.0279,-0.0272,-0.0222,-0.0193,-0.0183,-0.0137,-0.0117,-0.0115,-0.0063,-0.0025,0.0079,0.0074,0.0089,0.0094,0.0202,0.0202,0.0202,0.0135,0.0129,0.0124,0,0,0,0,0,0,-0.0324,-0.0287,-0.0269,-0.0269,-0.0237,-0.0181,-0.0176,-0.0145,-0.0102,-0.0095,-0.0027,-0.0011,0.0026,0.0067,0.006,0.0124,0.0147,0.015,0.0092,0.0087,0.0082,0.0068,0.0112,0,0,0,0,0,-0.0338,-0.0338,-0.0294,-0.0295,-0.0283,-0.0231,-0.0214,-0.0184,-0.0139,-0.0119,-0.0068,-0.0012,0.0036,0.0066,0.011,0.0143,0.0192,0.0157,0.0152,0.0148,0.0147,0.0219,0.022,0.0201,0.0201,0.0201,0,0,-0.0354,-0.0335,-0.0333,-0.0304,-0.0275,-0.0265,-0.0218,-0.0199,-0.0185,-0.0112,-0.008,-0.003,0.0039,0.0077,0.0098,0.0114,0.0179,0.0148,0.0144,0.0145,0.0219,0.0221,0.0223,0.0201,0.0201,0.0201,0,0,-0.0392,-0.0371,-0.0384,-0.0363,-0.033,-0.0295,-0.0295,-0.0244,-0.0215,-0.0181,-0.0123,-0.0073,-0.0006,0.005,0.0086,0.0084,0.0147,0.0096,0.007,0.0139,0.0141,0.0144,0.0202,0.021,0.01,0.01,0.01,0,-0.0414,-0.0422,-0.0383,-0.0388,-0.0375,-0.0315,-0.0322,-0.0285,-0.0226,-0.02,-0.0182,-0.0069,-0.0015,0.0049,0.0047,0.0074,0.0118,0.0083,0.0133,0.0136,0.014,0.0199,0.0209,0.0096,0.0097,0.0097,0.0097,0,-0.0457,-0.0462,-0.0468,-0.0453,-0.0434,-0.0432,-0.0378,-0.0352,-0.0311,-0.0264,-0.0202,-0.0124,-0.0054,-0.0028,0.0009,0.0065,0.0088,0.0112,0.0143,0.0138,0.02,0.0212,0.0091,0.0093,0.0094,0.0094,0,0,-0.051,-0.0503,-0.0504,-0.051,-0.0469,-0.0459,-0.0433,-0.0388,-0.0364,-0.0299,-0.0259,-0.0173,-0.0125,-0.0081,-0.002,0.0044,0.0106,0.0081,0.0087,0.0133,0.0253,0.0277,0.0293,0.0138,0.014,0.0141,0.0283,0,-0.0555,-0.0591,-0.0563,-0.0583,-0.0595,-0.0533,-0.0512,-0.046,-0.04,-0.0346,-0.025,-0.0192,-0.0145,-0.0111,-0.0042,0.0068,0.0134,0.0065,0.0257,0.0263,0.028,0.0307,0.028,0.0405,0.0295,0.0297,0.0299,0,-0.0606,-0.0623,-0.0661,-0.0651,-0.0648,-0.0644,-0.0594,-0.0566,-0.0469,-0.0421,-0.0339,-0.026,-0.0158,-0.012,0.0066,0.0017,0.0124,0.0212,0.0221,0.0277,0.0309,0.0396,0.0431,0.0319,0.0317,0.0316,0.0315,0,-0.0672,-0.0687,-0.0722,-0.0721,-0.0699,-0.0695,-0.0672,-0.0593,-0.0561,-0.0464,-0.0426,-0.0295,-0.0218,-0.0079,0.0097,0.0084,0.0307,0.0317,0.0443,0.0446,0.048,0.0482,0.0453,0.0453,0.0453,0.0453,0.0452,0,-0.0735,-0.076,-0.0759,-0.0781,-0.0809,-0.0762,-0.0761,-0.0713,-0.0634,-0.0584,-0.0475,-0.0397,-0.0203,-0.0051,0.0093,0.0306,0.0309,0.0448,0.049,0.0453,0.0451,0.042,0.0414,0.0458,0.0457,0.0456,0.0455,0,-0.0804,-0.0804,-0.0847,-0.0845,-0.0846,-0.0866,-0.0833,-0.0819,-0.0739,-0.0669,-0.0639,-0.0458,-0.0254,-0.0057,0.0196,0.0311,0.0503,0.058,0.0516,0.0549,0.0594,0.0583,0.0729,0.0731,0.0733,0.0735,0.0736,0,-0.0846,-0.0878,-0.0909,-0.0937,-0.0942,-0.0957,-0.0959,-0.0887,-0.0855,-0.0691,-0.0657,-0.0446,-0.0269,0.0089,0.0328,0.0588,0.0583,0.0703,0.0677,0.0598,0.0626,0.0612,0.0598,0.0695,0.0695,0.0696,0.0697,0,-0.092,-0.0929,-0.0962,-0.1028,-0.1052,-0.1068,-0.1057,-0.1039,-0.0923,-0.0828,-0.0646,-0.0486,-0.0135,0.0162,0.0478,0.0619,0.0651,0.0726,0.0692,0.0617,0.0575,0.0598,0.0585,0.0703,0.0702,0.0702,0.0701,0.0701,-0.0963,-0.1009,-0.1053,-0.112,-0.1144,-0.1157,-0.1184,-0.1103,-0.1019,-0.0841,-0.0649,-0.0389,-0.0101,0.0349,0.0572,0.0751,0.0756,0.0799,0.0793,0.0788,0.0747,0.0709,0.0855,0.0855,0.0855,0.0855,0.0856,0,-0.1022,-0.1073,-0.114,-0.1218,-0.128,-0.1262,-0.1237,-0.1233,-0.1125,-0.0851,-0.063,-0.0276,0.0075,0.0337,0.0643,0.084,0.0809,0.0849,0.0779,0.0773,0.0768,0.0721,0.0825,0.0825,0.0826,0.0826,0,0,-0.105,-0.1138,-0.1188,-0.1325,-0.1383,-0.1439,-0.1432,-0.1328,-0.1156,-0.088,-0.0624,-0.0296,0.0061,0.0272,0.0527,0.0676,0.0656,0.0675,0.0684,0.0565,0.0556,0.0732,0.0654,0,0,0,0,0]}],[{"header":{"parameterUnit":"m.s-1","parameterCategory":2,"la1":30.2991,"la2":30.254,"lo1":-89.0895,"lo2":-89.0444,"dy":0.0017,"dx":0.0017,"nx":28,"ny":28,"refTime":"2025-06-11T21:00:00:Z","depth":"4","parameterNumber":2,"parameterNumberName":"U-component_of_CURRENTS"},"data":[0,0,0,0,0,0,0,0,0,0,0,0,0,0,0,0,0,0,0,0,0,0,0,0,0,0,0,0,0,0,0,0,0,0,0,0,0,0,0,0,0,0,0,0,0,0,0,0,0,0,0,0,0,0,0,0,0,0,-0.1835,-0.1836,0,-0.192,-0.1921,-0.1922,-0.1977,-0.1978,-0.1978,-0.1979,-0.2067,-0.2069,-0.2071,0,0,0,0,0,0,0,0,0,0,0,0,0,-0.1711,-0.1713,-0.1835,-0.1836,-0.1837,-0.192,-0.1921,-0.1922,-0.1977,-0.1978,-0.1978,-0.1979,-0.2067,-0.2069,-0.2071,0,0,0,0,0,0,0,0,0,0,0,0,0,-0.1776,-0.1713,-0.1835,-0.1876,-0.1881,-0.192,-0.1921,-0.1922,-0.1977,-0.1978,-0.1978,-0.1979,-0.2066,-0.2069,-0.2072,-0.2074,0,0,-0.208,-0.2081,0,0,0,0,0,0,0,0,-0.1772,-0.178,-0.1869,-0.1873,-0.1879,-0.194,-0.191,-0.1974,-0.1977,-0.1938,-0.1979,-0.198,-0.2026,-0.2032,-0.2044,-0.2078,-0.2082,-0.208,-0.2082,-0.2083,-0.2084,0,0,0,0,0,0,0,-0.1767,-0.1776,-0.1867,-0.187,-0.1876,-0.1888,-0.1897,-0.1922,-0.1975,-0.1942,-0.1947,-0.1959,-0.2028,-0.2041,-0.2046,-0.2083,-0.208,-0.2083,-0.2085,-0.2086,-0.2189,-0.219,0,0,0,0,0,0,-0.176,-0.1772,-0.1864,-0.187,-0.1828,-0.1889,-0.19,-0.1918,-0.1975,-0.1985,-0.1958,-0.1961,-0.2036,-0.2043,-0.205,-0.2126,-0.2083,-0.2086,-0.2088,-0.2188,-0.2189,-0.2191,0,0,0,0,0,0,-0.1757,-0.1768,-0.1861,-0.1824,-0.1837,-0.1891,-0.1911,-0.192,-0.1965,-0.1988,-0.1998,-0.1998,-0.2037,-0.2046,-0.21,-0.2127,-0.2087,-0.209,-0.2187,-0.2189,-0.219,-0.2233,0,0,0,0,0,0,-0.1754,-0.1766,-0.1791,-0.1824,-0.1839,-0.1905,-0.191,-0.1921,-0.197,-0.1976,-0.2025,-0.2032,-0.2038,-0.2095,-0.2102,-0.213,-0.2092,-0.2186,-0.2188,-0.2189,-0.223,-0.2236,-0.2241,0,0,0,0,0,-0.1749,-0.1776,-0.1792,-0.1804,-0.1867,-0.1907,-0.1916,-0.1955,-0.1972,-0.1998,-0.2031,-0.2032,-0.2112,-0.2099,-0.2107,-0.2136,-0.2185,-0.2187,-0.2189,-0.2228,-0.2235,-0.2241,0,0,0,0,0,0,-0.1737,-0.1785,-0.1804,-0.1846,-0.1884,-0.1917,-0.1949,-0.1973,-0.202,-0.2034,-0.2051,-0.2061,-0.2116,-0.212,-0.2105,-0.217,-0.2146,-0.2151,-0.2173,-0.218,-0.2185,-0.2181,-0.2094,0,0,0,0,0,-0.1745,-0.1779,-0.1821,-0.1858,-0.1879,-0.192,-0.1947,-0.1975,-0.2013,-0.2036,-0.2069,-0.21,-0.2126,-0.215,-0.2173,-0.2215,-0.2195,-0.2236,-0.2241,-0.2246,-0.2247,-0.2245,-0.2249,-0.2198,-0.2198,-0.2198,0,0,-0.1751,-0.1782,-0.1804,-0.1858,-0.1891,-0.1931,-0.1939,-0.1991,-0.203,-0.2037,-0.2108,-0.2125,-0.2141,-0.2186,-0.221,-0.2198,-0.2247,-0.2249,-0.2252,-0.2251,-0.2248,-0.2252,-0.2257,-0.22,-0.22,-0.2199,0,0,-0.1769,-0.1809,-0.1842,-0.1878,-0.1935,-0.1959,-0.1981,-0.2035,-0.2069,-0.2129,-0.214,-0.2174,-0.2227,-0.2237,-0.2247,-0.2296,-0.2275,-0.2308,-0.2336,-0.2334,-0.2338,-0.2341,-0.2308,-0.2307,-0.2311,-0.2312,-0.2312,0,-0.1777,-0.1823,-0.1858,-0.1898,-0.1934,-0.1976,-0.2019,-0.2057,-0.2123,-0.215,-0.2161,-0.2231,-0.2247,-0.2285,-0.2301,-0.2308,-0.2293,-0.2311,-0.234,-0.2343,-0.2345,-0.231,-0.231,-0.2314,-0.2314,-0.2313,-0.2313,0,-0.1808,-0.1861,-0.1884,-0.1948,-0.1989,-0.2036,-0.2087,-0.2136,-0.218,-0.221,-0.2273,-0.2293,-0.2328,-0.234,-0.2338,-0.2368,-0.2346,-0.2345,-0.2321,-0.2353,-0.2314,-0.2312,-0.2317,-0.2316,-0.2316,-0.2315,0,0,-0.1783,-0.1888,-0.1899,-0.194,-0.2023,-0.2054,-0.2125,-0.2187,-0.2228,-0.2289,-0.2331,-0.2378,-0.2387,-0.2398,-0.2401,-0.2403,-0.2402,-0.2387,-0.2386,-0.2349,-0.2378,-0.2216,-0.2198,-0.2411,-0.2411,-0.2411,-0.2338,0,-0.1801,-0.188,-0.1932,-0.201,-0.2053,-0.2117,-0.2172,-0.2234,-0.2285,-0.2334,-0.2362,-0.2404,-0.241,-0.2426,-0.2432,-0.2411,-0.2403,-0.2421,-0.2357,-0.2355,-0.2203,-0.2193,-0.2413,-0.2337,-0.2336,-0.2336,-0.2336,0,-0.1806,-0.1862,-0.1945,-0.2041,-0.2066,-0.2122,-0.2209,-0.2264,-0.2336,-0.2372,-0.2419,-0.2439,-0.2462,-0.2455,-0.2441,-0.2454,-0.2421,-0.2399,-0.2396,-0.2228,-0.2189,-0.2303,-0.2333,-0.2333,-0.2333,-0.2333,-0.2333,0,-0.1752,-0.1865,-0.1933,-0.1969,-0.2083,-0.2135,-0.2196,-0.2279,-0.232,-0.2395,-0.2419,-0.2459,-0.2468,-0.2457,-0.2416,-0.2434,-0.2372,-0.2387,-0.2208,-0.2196,-0.2348,-0.2345,-0.2367,-0.2367,-0.2368,-0.2368,-0.2368,0,-0.173,-0.1785,-0.192,-0.1954,-0.2026,-0.2117,-0.219,-0.2252,-0.233,-0.2354,-0.2433,-0.2432,-0.2472,-0.2443,-0.2412,-0.2283,-0.2366,-0.2196,-0.2163,-0.2365,-0.2366,-0.2345,-0.2343,-0.2365,-0.2366,-0.2366,-0.2367,0,-0.1651,-0.1747,-0.1826,-0.1961,-0.2004,-0.2054,-0.2177,-0.221,-0.2305,-0.2335,-0.2356,-0.2409,-0.2358,-0.236,-0.2314,-0.2244,-0.216,-0.2097,-0.2284,-0.2267,-0.1989,-0.1991,-0.1888,-0.1882,-0.1876,-0.1872,-0.1868,0,-0.1615,-0.1652,-0.1807,-0.1845,-0.1912,-0.2004,-0.2051,-0.2176,-0.2201,-0.2288,-0.2269,-0.2273,-0.2281,-0.2068,-0.2105,-0.201,-0.1995,-0.1946,-0.1994,-0.196,-0.194,-0.195,-0.1959,-0.1859,-0.1858,-0.1856,-0.1855,0,-0.1528,-0.1602,-0.1662,-0.1744,-0.1813,-0.1875,-0.1954,-0.1958,-0.2072,-0.2185,-0.2107,-0.2063,-0.1993,-0.1939,-0.1869,-0.1817,-0.1979,-0.189,-0.1902,-0.1946,-0.1924,-0.1911,-0.1927,-0.1836,-0.1839,-0.1841,-0.1842,0,-0.1456,-0.147,-0.1553,-0.1599,-0.1684,-0.1694,-0.1773,-0.1783,-0.1825,-0.1933,-0.1895,-0.1899,-0.1956,-0.1834,-0.1774,-0.1699,-0.1687,-0.165,-0.1675,-0.1696,-0.1669,-0.1615,-0.1384,0,0,0,0,0,-0.1364,-0.1348,-0.139,-0.1422,-0.15,-0.154,-0.1667,-0.1746,-0.1868,-0.1756,-0.182,-0.1744,-0.1649,-0.1658,-0.1536,-0.1692,-0.1699,-0.1547,-0.1673,-0.1732,-0.1754,-0.174,0,0,0,0,0,0,-0.1296,-0.1327,-0.1328,-0.1255,-0.1238,-0.1295,-0.1374,-0.1472,-0.1428,-0.1559,-0.1506,-0.1613,-0.1538,-0.165,-0.1477,-0.1482,-0.1525,-0.1571,-0.1566,-0.1719,-0.1739,-0.1757,-0.175,0,0,0,0,0]},{"header":{"parameterUnit":"m.s-1","parameterCategory":2,"la1":30.2991,"la2":30.254,"lo1":-89.0895,"lo2":-89.0444,"dy":0.0017,"dx":0.0017,"nx":28,"ny":28,"refTime":"2025-06-11T21:00:00:Z","depth":"4","parameterNumber":3,"parameterNumberName":"V-component_of_CURRENTS"},"data":[0,0,0,0,0,0,0,0,0,0,0,0,0,0,0,0,0,0,0,0,0,0,0,0,0,0,0,0,0,0,0,0,0,0,0,0,0,0,0,0,0,0,0,0,0,0,0,0,0,0,0,0,0,0,0,0,0,0,-0.022,-0.0219,0,-0.0151,-0.015,-0.0149,-0.0099,-0.0098,-0.0098,-0.0098,0.0009,0.0012,0.0014,0,0,0,0,0,0,0,0,0,0,0,0,0,-0.0266,-0.0265,-0.022,-0.0219,-0.0218,-0.0151,-0.015,-0.0149,-0.0099,-0.0098,-0.0098,-0.0097,0.0008,0.0011,0.0014,0,0,0,0,0,0,0,0,0,0,0,0,0,-0.0225,-0.0265,-0.022,-0.0186,-0.0182,-0.0151,-0.015,-0.0148,-0.0099,-0.0098,-0.0098,-0.0097,0.0007,0.0011,0.0015,0.0029,0,0,0.0027,0.0028,0,0,0,0,0,0,0,0,-0.0228,-0.0224,-0.0192,-0.0188,-0.0184,-0.0134,-0.0127,-0.0088,-0.0099,-0.0129,-0.0098,-0.0097,-0.0036,-0.0029,-0.0016,0.0034,0.0038,0.0027,0.0029,0.0031,0.0032,0,0,0,0,0,0,0,-0.0231,-0.0226,-0.0191,-0.0191,-0.0186,-0.016,-0.0154,-0.0119,-0.0085,-0.0127,-0.0123,-0.0117,-0.0034,-0.002,-0.0013,0.004,0.0027,0.003,0.0033,0.0034,0.012,0.012,0,0,0,0,0,0,-0.0244,-0.0229,-0.0194,-0.0189,-0.0206,-0.0159,-0.0153,-0.015,-0.0086,-0.0076,-0.0118,-0.0115,-0.0026,-0.0017,-0.0009,0.0019,0.0031,0.0034,0.0037,0.012,0.012,0.012,0,0,0,0,0,0,-0.0245,-0.0242,-0.0196,-0.0208,-0.0201,-0.016,-0.0156,-0.0148,-0.0135,-0.008,-0.0069,-0.0113,-0.0026,-0.0014,0.0019,0.0024,0.0036,0.004,0.012,0.012,0.012,0.0071,0,0,0,0,0,0,-0.0247,-0.0243,-0.0248,-0.0209,-0.0201,-0.0186,-0.0157,-0.0147,-0.0133,-0.0129,-0.0072,-0.0062,-0.0024,0.0013,0.0022,0.0029,0.0043,0.012,0.012,0.012,0.0072,0.0069,0.0066,0,0,0,0,0,-0.0249,-0.0258,-0.0248,-0.0244,-0.0208,-0.0186,-0.018,-0.0147,-0.0133,-0.0133,-0.0093,-0.0063,0.002,0.0015,0.0027,0.0035,0.012,0.012,0.012,0.0074,0.007,0.0066,0,0,0,0,0,0,-0.0279,-0.0253,-0.0241,-0.0242,-0.022,-0.0178,-0.0176,-0.0154,-0.0122,-0.0118,-0.0065,-0.0052,-0.0022,0.0011,0.0005,0.006,0.0076,0.0078,0.0036,0.0033,0.003,0.0019,0.0046,0,0,0,0,0,-0.029,-0.0292,-0.026,-0.0262,-0.0254,-0.0217,-0.0205,-0.0184,-0.015,-0.0136,-0.0096,-0.0052,-0.0012,0.0012,0.0047,0.0077,0.0113,0.009,0.0087,0.0084,0.0083,0.0142,0.0144,0.012,0.012,0.012,0,0,-0.0303,-0.0289,-0.0289,-0.0269,-0.0249,-0.0241,-0.0208,-0.0196,-0.0184,-0.0129,-0.0104,-0.0065,-0.0009,0.0023,0.0041,0.0053,0.0108,0.0084,0.0081,0.0082,0.0142,0.0145,0.0147,0.012,0.012,0.012,0,0,-0.0329,-0.0317,-0.0326,-0.0312,-0.029,-0.0265,-0.0265,-0.0229,-0.0208,-0.0182,-0.0136,-0.0095,-0.0042,0.0006,0.0037,0.0039,0.0084,0.0047,0.0031,0.0088,0.009,0.0093,0.013,0.0137,0.0052,0.0052,0.0052,0,-0.0345,-0.0351,-0.0326,-0.0329,-0.0321,-0.028,-0.0284,-0.0256,-0.0213,-0.0194,-0.0183,-0.0091,-0.0046,0.0012,0.0012,0.0033,0.0063,0.0039,0.0084,0.0087,0.0091,0.0129,0.0137,0.0049,0.005,0.005,0.005,0,-0.0373,-0.0378,-0.0384,-0.0373,-0.0361,-0.036,-0.032,-0.0303,-0.0274,-0.024,-0.019,-0.0126,-0.007,-0.0046,-0.0016,0.0035,0.0045,0.0067,0.0091,0.009,0.013,0.0139,0.0046,0.0047,0.0047,0.0048,0,0,-0.0404,-0.0405,-0.0407,-0.0414,-0.0386,-0.038,-0.0359,-0.0326,-0.031,-0.0259,-0.0229,-0.0153,-0.0118,-0.0082,-0.0031,0.0024,0.0073,0.005,0.0054,0.0082,0.0184,0.0162,0.017,0.0101,0.0103,0.0104,0.0197,0,-0.0434,-0.0461,-0.0444,-0.0461,-0.047,-0.0429,-0.0414,-0.0376,-0.0335,-0.0296,-0.0215,-0.0171,-0.013,-0.0104,-0.0044,0.0043,0.0096,0.0045,0.0184,0.0188,0.0166,0.0179,0.0109,0.0204,0.0206,0.0208,0.0209,0,-0.0464,-0.0479,-0.0509,-0.051,-0.0509,-0.0511,-0.0481,-0.0461,-0.0389,-0.0356,-0.0291,-0.0228,-0.0141,-0.0109,0.004,0.0003,0.0084,0.0154,0.016,0.0164,0.0183,0.021,0.0226,0.0225,0.0223,0.0222,0.0221,0,-0.0503,-0.0521,-0.0551,-0.0553,-0.0545,-0.0549,-0.0538,-0.0484,-0.0465,-0.0393,-0.0369,-0.0258,-0.02,-0.0084,0.0055,0.0049,0.0218,0.0232,0.0292,0.0291,0.0305,0.0301,0.0341,0.0341,0.034,0.034,0.034,0,-0.0536,-0.0562,-0.058,-0.0598,-0.0631,-0.0602,-0.0614,-0.0582,-0.053,-0.05,-0.0409,-0.0352,-0.019,-0.0072,0.0046,0.0191,0.0215,0.029,0.0318,0.028,0.0272,0.0311,0.0306,0.0344,0.0343,0.0342,0.0342,0,-0.0574,-0.0585,-0.0627,-0.0645,-0.0656,-0.068,-0.0679,-0.0676,-0.0623,-0.058,-0.0557,-0.0415,-0.0259,-0.01,0.0103,0.0176,0.0321,0.037,0.0305,0.0327,0.0355,0.0347,0.0437,0.0437,0.0437,0.0437,0.0437,0,-0.0594,-0.0622,-0.0677,-0.0714,-0.073,-0.0761,-0.0776,-0.0733,-0.0717,-0.0607,-0.0582,-0.0427,-0.0318,-0.0053,0.0106,0.032,0.0352,0.0405,0.0389,0.0349,0.0368,0.0359,0.0351,0.0437,0.0437,0.0437,0.0437,0,-0.0635,-0.0662,-0.0699,-0.0782,-0.0824,-0.0856,-0.0867,-0.0852,-0.0777,-0.0732,-0.0578,-0.0423,-0.0248,-0.0044,0.0119,0.0275,0.0355,0.0407,0.0408,0.0393,0.0351,0.0367,0.0359,0.0437,0.0437,0.0437,0.0437,0,-0.0669,-0.0712,-0.0775,-0.0841,-0.0904,-0.0931,-0.0923,-0.0871,-0.0832,-0.0685,-0.063,-0.0421,-0.0286,-0.0065,0.0089,0.023,0.0263,0.0289,0.0297,0.0298,0.0225,0.0149,0.02,0,0,0,0,0,-0.0698,-0.0755,-0.0827,-0.0905,-0.0968,-0.0997,-0.0976,-0.0944,-0.0859,-0.0754,-0.0682,-0.0504,-0.0241,-0.0121,0.0018,0.0062,0.0256,0.0223,0.0282,0.0439,0.0438,0.0373,0,0,0,0,0,0,-0.0722,-0.0799,-0.0837,-0.0945,-0.1007,-0.1063,-0.1044,-0.098,-0.0898,-0.0785,-0.0635,-0.0518,-0.0261,-0.0335,0.0,0.0046,0.0093,0.0359,0.0361,0.0439,0.0438,0.0438,0.0371,0,0,0,0,0]}]]